TimeCDT,TemperatureF,Dew PointF,Humidity,Sea Level PressureIn,VisibilityMPH,Wind Direction,Wind SpeedMPH,Gust SpeedMPH,PrecipitationIn,Events,Conditions,WindDirDegrees,DateUTC
12:15 AM,17.1,9.1,71,30.52,10.0,Calm,Calm,-,N/A,,Clear,0,2014-03-23 05:15:00
12:35 AM,16.2,7.9,70,30.52,10.0,Calm,Calm,-,N/A,,Clear,0,2014-03-23 05:35:00
12:55 AM,15.3,6.8,69,30.52,10.0,Calm,Calm,-,N/A,,Clear,0,2014-03-23 05:55:00
1:15 AM,15.4,8.2,73,30.52,10.0,North,3.5,-,N/A,,Clear,10,2014-03-23 06:15:00
1:35 AM,15.6,9.1,76,30.52,10.0,Calm,Calm,-,N/A,,Clear,0,2014-03-23 06:35:00
1:55 AM,14.7,7.7,74,30.52,10.0,Calm,Calm,-,N/A,,Clear,0,2014-03-23 06:55:00
2:15 AM,13.6,5.7,71,30.52,10.0,Calm,Calm,-,N/A,,Clear,0,2014-03-23 07:15:00
2:35 AM,13.5,5.7,71,30.52,10.0,Calm,Calm,-,N/A,,Clear,0,2014-03-23 07:35:00
2:55 AM,12.6,4.6,71,30.52,10.0,Calm,Calm,-,N/A,,Clear,0,2014-03-23 07:55:00
3:15 AM,11.5,2.1,66,30.52,10.0,Calm,Calm,-,N/A,,Clear,0,2014-03-23 08:15:00
3:35 AM,10.8,1.4,66,30.52,10.0,Calm,Calm,-,N/A,,Clear,0,2014-03-23 08:35:00
3:55 AM,11.1,2.1,67,30.52,10.0,Calm,Calm,-,N/A,,Clear,0,2014-03-23 08:55:00
4:15 AM,10.9,2.1,68,30.51,10.0,Calm,Calm,-,N/A,,Clear,0,2014-03-23 09:15:00
4:35 AM,10.2,0.5,65,30.51,10.0,Calm,Calm,-,N/A,,Clear,0,2014-03-23 09:35:00
4:55 AM,9.3,-1.3,62,30.51,10.0,Calm,Calm,-,N/A,,Clear,0,2014-03-23 09:55:00
5:10 AM,8.6,-2.2,62,30.51,10.0,Calm,Calm,-,N/A,,Clear,0,2014-03-23 10:10:00
5:35 AM,8.6,-1.8,63,30.52,10.0,Calm,Calm,-,N/A,,Clear,0,2014-03-23 10:35:00
5:55 AM,8.6,-2.6,61,30.52,10.0,Calm,Calm,-,N/A,,Clear,0,2014-03-23 10:55:00
6:15 AM,8.1,-3.1,60,30.52,10.0,Calm,Calm,-,N/A,,Clear,0,2014-03-23 11:15:00
6:35 AM,7.7,-3.6,60,30.52,10.0,Calm,Calm,-,N/A,,Clear,0,2014-03-23 11:35:00
6:55 AM,7.7,-2.9,62,30.52,10.0,Calm,Calm,-,N/A,,Clear,0,2014-03-23 11:55:00
7:15 AM,8.4,0.3,70,30.52,10.0,Calm,Calm,-,N/A,,Clear,0,2014-03-23 12:15:00
7:35 AM,7.7,-1.3,67,30.52,10.0,Calm,Calm,-,N/A,,Clear,0,2014-03-23 12:35:00
7:55 AM,7.7,-1.3,67,30.52,10.0,Calm,Calm,-,N/A,,Clear,0,2014-03-23 12:55:00
8:15 AM,9.7,2.8,74,30.52,10.0,Calm,Calm,-,N/A,,Clear,0,2014-03-23 13:15:00
8:35 AM,13.6,9.3,83,30.52,10.0,Calm,Calm,-,N/A,,Clear,0,2014-03-23 13:35:00
8:55 AM,16.2,12.2,84,30.52,10.0,Calm,Calm,-,N/A,,Clear,0,2014-03-23 13:55:00
9:15 AM,18.1,14.2,84,30.51,10.0,Calm,Calm,-,N/A,,Clear,0,2014-03-23 14:15:00
9:35 AM,19.4,14.7,82,30.52,10.0,SSW,4.6,-,N/A,,Clear,200,2014-03-23 14:35:00
9:55 AM,20.7,14.7,78,30.52,10.0,SSW,3.5,-,N/A,,Clear,200,2014-03-23 14:55:00
10:15 AM,22.1,14.5,73,30.51,10.0,South,3.5,-,N/A,,Clear,180,2014-03-23 15:15:00
10:35 AM,23.9,13.3,64,30.51,10.0,Calm,Calm,-,N/A,,Scattered Clouds,0,2014-03-23 15:35:00
10:55 AM,26.1,9.5,50,30.50,10.0,South,3.5,-,N/A,,Clear,190,2014-03-23 15:55:00
11:15 AM,26.2,8.4,47,30.49,10.0,Calm,Calm,-,N/A,,Clear,0,2014-03-23 16:15:00
11:35 AM,28.4,9.3,45,30.49,10.0,SW,3.5,-,N/A,,Clear,220,2014-03-23 16:35:00
11:55 AM,28.4,8.1,42,30.48,10.0,Calm,Calm,-,N/A,,Scattered Clouds,0,2014-03-23 16:55:00
12:15 PM,29.7,8.8,42,30.48,10.0,WNW,8.1,-,N/A,,Scattered Clouds,290,2014-03-23 17:15:00
12:35 PM,30.7,7.5,38,30.47,10.0,SSW,4.6,-,N/A,,Scattered Clouds,200,2014-03-23 17:35:00
12:55 PM,29.3,8.6,42,30.46,10.0,South,5.8,-,N/A,,Scattered Clouds,190,2014-03-23 17:55:00
1:15 PM,32.2,8.1,36,30.45,10.0,SW,5.8,-,N/A,,Mostly Cloudy,230,2014-03-23 18:15:00
1:35 PM,32.9,8.2,36,30.44,10.0,WSW,5.8,-,N/A,,Scattered Clouds,250,2014-03-23 18:35:00
1:55 PM,31.8,7.9,37,30.43,10.0,SSW,5.8,-,N/A,,Scattered Clouds,210,2014-03-23 18:55:00
2:15 PM,32.9,8.6,36,30.42,10.0,West,9.2,-,N/A,,Scattered Clouds,260,2014-03-23 19:15:00
2:35 PM,33.8,8.1,34,30.40,10.0,NW,5.8,-,N/A,,Scattered Clouds,320,2014-03-23 19:35:00
2:55 PM,34.0,8.4,34,30.39,10.0,West,6.9,11.5,N/A,,Scattered Clouds,280,2014-03-23 19:55:00
3:15 PM,35.1,8.2,33,30.38,10.0,SW,8.1,-,N/A,,Clear,230,2014-03-23 20:15:00
3:35 PM,34.7,7.5,32,30.37,10.0,Calm,Calm,-,N/A,,Clear,0,2014-03-23 20:35:00
3:55 PM,36.0,7.7,31,30.35,10.0,WNW,5.8,-,N/A,,Scattered Clouds,290,2014-03-23 20:55:00
4:15 PM,36.3,8.1,31,30.34,10.0,South,5.8,-,N/A,,Clear,170,2014-03-23 21:15:00
4:35 PM,37.4,8.1,30,30.33,10.0,WSW,4.6,-,N/A,,Clear,240,2014-03-23 21:35:00
4:55 PM,35.6,7.3,31,30.33,10.0,SSE,5.8,-,N/A,,Clear,160,2014-03-23 21:55:00
5:15 PM,35.6,8.2,32,30.32,10.0,SW,8.1,-,N/A,,Scattered Clouds,230,2014-03-23 22:15:00
5:35 PM,35.6,7.3,31,30.31,10.0,Calm,Calm,-,N/A,,Mostly Cloudy,0,2014-03-23 22:35:00
5:55 PM,34.7,7.7,32,30.31,10.0,SSW,8.1,-,N/A,,Overcast,200,2014-03-23 22:55:00
6:15 PM,33.8,7.3,33,30.30,10.0,SSE,3.5,-,N/A,,Overcast,160,2014-03-23 23:15:00
6:35 PM,33.1,8.1,35,30.30,10.0,South,5.8,-,N/A,,Mostly Cloudy,170,2014-03-23 23:35:00
6:55 PM,32.4,7.9,36,30.30,10.0,SSE,4.6,-,N/A,,Mostly Cloudy,150,2014-03-23 23:55:00
7:10 PM,32.0,8.4,37,30.30,10.0,SSE,3.5,-,N/A,,Mostly Cloudy,150,2014-03-24 00:10:00
7:35 PM,31.5,10.2,41,30.29,10.0,SE,4.6,-,N/A,,Overcast,140,2014-03-24 00:35:00
7:55 PM,30.7,8.6,40,30.29,10.0,SE,4.6,-,N/A,,Overcast,130,2014-03-24 00:55:00
8:15 PM,30.2,9.3,42,30.29,10.0,SE,5.8,-,N/A,,Overcast,130,2014-03-24 01:15:00
8:30 PM,30.0,9.7,43,30.29,10.0,ESE,5.8,-,N/A,,Overcast,120,2014-03-24 01:30:00
8:55 PM,30.0,11.3,46,30.30,10.0,Calm,Calm,-,N/A,,Overcast,0,2014-03-24 01:55:00
9:15 PM,30.0,12.2,48,30.31,10.0,ESE,3.5,-,N/A,,Overcast,120,2014-03-24 02:15:00
9:35 PM,30.2,12.2,47,30.31,10.0,Calm,Calm,-,N/A,,Overcast,0,2014-03-24 02:35:00
9:55 PM,30.2,12.9,49,30.31,10.0,Calm,Calm,-,N/A,,Overcast,0,2014-03-24 02:55:00
10:15 PM,29.7,13.1,50,30.32,10.0,Calm,Calm,-,N/A,,Overcast,0,2014-03-24 03:15:00
10:35 PM,29.8,13.8,51,30.32,10.0,SE,3.5,-,N/A,,Overcast,130,2014-03-24 03:35:00
10:55 PM,30.2,14.9,53,30.32,10.0,SSW,9.2,-,N/A,,Overcast,200,2014-03-24 03:55:00
11:15 PM,30.0,16.9,58,30.31,10.0,South,5.8,-,N/A,,Overcast,170,2014-03-24 04:15:00
11:35 PM,29.7,17.1,59,30.31,10.0,SE,4.6,-,N/A,,Overcast,140,2014-03-24 04:35:00
11:55 PM,29.3,18.3,64,30.32,10.0,South,4.6,-,N/A,,Overcast,170,2014-03-24 04:55:00